COSMOS 2234 (GLONASS)

Satellite information

Favourite Embed

Satellite Type and Status

PAYLOADIN ORBIT

Key statistics

Satellite COSMOS 2234 (GLONASS) at a glance.

Uptime

11988

Days in orbit

Revolutions

≈ 2.1

Per day

Orbit

MEO

Medium Earth Orbit

Inclination

64.8

Latest

Satellite identification and parameters

Extended collection of information and parameters for COSMOS 2234 (GLONASS).

Object identification

Identified? True

Debris? False

Object name: COSMOS 2234 (GLONASS)

International designator: 1993-010A

Object number (NORAD): 22512

Object ID (CCSDS): 22512

Country: COMMONWEALTH OF INDEPENDENT STATES (CIS)

Current information (Y/N): Y

RCS size: LARGE

Orbital parameters

Period: 675.728 minutes

Inclination: 64.7887 deg

SMA: 25507.907 km

Apoapsis: 19187.899 km

Periapsis: 19071.645 km

RAAN: 76.5506 deg

Eccentricy: 0.00227879

Argument of periapsis: 213.3764 deg

Mean anomaly: 206.608 deg

Mean motion: 2.13103467 rev/day

Mean motion (dot): -0.00000026 rev/day2

B* drag term: 0.0 1/REarth

Two-line elements (TLE)

Creation date: Dec. 10, 2025, 7:58 p.m.

Reference frame: TEME

Reference center: EARTH

Epoch: Dec. 10, 2025, 9:04 a.m. UTC

TLE line 0: 0 COSMOS 2234 (GLONASS)

TLE line 1: 1 22512U 93010A 25344.37793735 -.00000026 00000-0 00000-0 0 9996

TLE line 2: 2 22512 64.7887 76.5506 0022788 213.3764 206.6080 2.13103467255119

Live tracking on map

Real-time ground track for satellite COSMOS 2234 (GLONASS).

In-orbit conjunctions

A list of the most updated potential collisions computed for object COSMOS 2234 (GLONASS).

Target Orbit TCA Probability of collision Miss distance Type
SL-12 R/B(2) MEO 2024-09-03 22:00:31 TBA 4120.0 (m) ROCKET BODY

Associated space launch

GLONASS navigation satellites

COSMOS 2234 (GLONASS) was lifted into orbit during the mission ‘Proton | Uragan 51 to 53’, on board a Proton space rocket.

The launch took place on Feb. 17, 1993, 8:09 p.m. from 81/23 (81L).

For more information about the launch, click the button.

Launch to space Proton | Uragan 51 to 53
Proton | Uragan 51 to 53

Agency: N/A

Status: Launch Successful

Launch date: Feb. 17, 1993, 8:09 p.m. UTC

Rocket: Proton

Launch pad: 81/23 (81L)

Location: Baikonur Cosmodrome, Republic of Kazakhstan

...

Latest news about this satellite

There are no fresh news available about this satellite. Check back as we update our databases every day.


Newsletter sign-up

Weekly statistics, charts and insights to help you stay on top of the space industry.